Regional Weather Roundup
Issued by NWS

Home | Current Version | Previous Version | Text Only | Print | Product List | Glossary Off
Versions: 1 2 3 4 5 6 7 8 9 10 11 12 13 14 15 16 17 18 19 20 21 22 23 24 25 26 27 28 29 30 31 32 33 34 35 36 37 38 39 40 41 42 43 44 45 46 47 48 49 50

000
ASUS43 KLOT 221158
RWRIL

ILLINOIS REGIONAL WEATHER ROUNDUP
NATIONAL WEATHER SERVICE CHICAGO/ROMEOVILLE IL
700 AM CDT TUE JUL 22 2014

NOTE: "FAIR" INDICATES FEW OR NO CLOUDS BELOW 12,000 FEET WITH NO
SIGNIFICANT WEATHER AND/OR OBSTRUCTIONS TO VISIBILITY.

* THESE STATIONS ARE NOT UNDER NWS QUALITY CONTROL. THEY ALSO MAY NOT
  REPORT WEATHER SUCH AS PRECIPITATION OR FOG.

ILZ001-002-007-009-015-016-024-221300-
NORTHWEST ILLINOIS

CITY           SKY/WX    TMP DP  RH WIND       PRES   REMARKS
MOLINE         SUNNY     74  67  78 S8        29.98F
6HR MIN TEMP:  73; 6HR MAX TEMP:  76;

$$

ILZ003-004-008-010-011-017-018-221300-
NORTH CENTRAL ILLINOIS

CITY           SKY/WX    TMP DP  RH WIND       PRES   REMARKS
ROCKFORD       NOT AVBL
$$

ILZ005-006-012>014-019>023-221300-
NORTHEAST ILLINOIS

CITY           SKY/WX    TMP DP  RH WIND       PRES   REMARKS
CHICAGO-OHARE  MOSUNNY   73  62  68 S9        30.05F
6HR MIN TEMP:  69; 6HR MAX TEMP:  73;

CHICAGO-MIDWAY MOSUNNY   73  65  75 S9        30.07R
6HR MIN TEMP:  72; 6HR MAX TEMP:  76;

AURORA         SUNNY     68  64  87 S8        30.05F FOG
6HR MIN TEMP:  66; 6HR MAX TEMP:  70;

WAUKEGAN       SUNNY     72  64  76 S13       30.03S
6HR MIN TEMP:  67; 6HR MAX TEMP:  72;

DUPAGE AIRPORT SUNNY     70  64  81 S12       30.04F
6HR MIN TEMP:  67; 6HR MAX TEMP:  70;

WHEELING       SUNNY     74  64  71 S10       30.06F
6HR MIN TEMP:  71; 6HR MAX TEMP:  75;

NORTHERLY ISL    N/A     73  62  68 S10         N/A
$$

LMZ740>746-221300-
SOUTHERN LAKE MICHIGAN

STATION/POSITION SKY/WX   TEMP    WIND        PRES    VSBY  WAVE
                          AIR SEA DIR/SP/G                  HT/PER
                          (F)     (DEG/KT/KT) (MB)    (MI)  (FT/S)
SOUTHERN BUOY              70 69  190/ 10/ 12 1017.4R         1/ 3
WAUKEGAN HARBOR            67     190/  9/ 11 1018.3S
HARRISON CRIB              72     210/ 13/ 16   N/A
BURNHAM HARBOR             72     190/  6/ 10   N/A
CALUMET HARBOR             70     190/  5/  7 1017.0R
BURNS HARBOR               69     190/  8/ 10 1018.6S
MICHIGAN CITY              70     150/ 10/ 15   N/A
$$

ILZ025>027-034>036-040-047-049-050-058-095>099-221300-
WEST-CENTRAL ILLINOIS

CITY           SKY/WX    TMP DP  RH WIND       PRES   REMARKS
$$

ILZ028>032-037-038-041>044-048-051>054-059>061-221300-
CENTRAL ILLINOIS

CITY           SKY/WX    TMP DP  RH WIND       PRES   REMARKS
PEORIA         NOT AVBL
SPRINGFIELD    SUNNY     73  66  78 SW6       30.08S
6HR MIN TEMP:  70; 6HR MAX TEMP:  73;

TAYLORVILLE    NOT AVBL
$$

ILZ033-039-045-046-055>057-062-063-221300-
EAST-CENTRAL ILLINOIS

CITY           SKY/WX    TMP DP  RH WIND       PRES   REMARKS
CHAMPAIGN      MOSUNNY   67  64  90 S6        30.11S FOG
$$

ILZ079-100>102-221300-
SOUTHWEST ILLINOIS

CITY           SKY/WX    TMP DP  RH WIND       PRES   REMARKS
BELLEVILLE     SUNNY     64  64 100 CALM      30.09S FOG
CAHOKIA*       SUNNY     68  65  90 S5        30.09S
$$

ILZ064>066-069>071-074>076-080>082-084>086-088>090-092>094-221300-
SOUTH-CENTRAL ILLINOIS

CITY           SKY/WX    TMP DP  RH WIND       PRES   REMARKS
CARBONDALE     SUNNY     65  63  93 CALM      30.11R FOG
6HR MIN TEMP:  63; 6HR MAX TEMP:  66;

MARION         SUNNY     66  66 100 CALM      30.12R
$$

ILZ067-068-072-073-078-083-087-091-221300-
SOUTHEAST ILLINOIS

CITY           SKY/WX    TMP DP  RH WIND       PRES   REMARKS
$$

ABBREVIATIONS USED IN REMARKS
   TC - TEMPERATURE IN CELSIUS
  WCI - WIND CHILL INDEX
   HX - HEAT INDEX
  VSB - VISIBILITY
$$



USA.gov is the U.S. government's official web portal to all federal, state and local government web resources and services.